Location: Buch am Rannenberg
(48.6989°N, 10.6399°E)
Time: 04:26:17
(UTC+00:00)

AQUA - Pass Details

Date: 07 June 2020
Orbit: 702 x 702 km, 98.2° (Epoch: 14 July)

Event Time Altitude Azimuth Distance (km) Brightness Sun altitude
Rises 01:07:27 0° 16° (NNE) 3,104 8.9 -14.3°
Reaches altitude 10° 01:09:44 10° 19° (NNE) 2,181 7.8 -14.2°
Maximum altitude 01:14:29 65° 102° (ESE) 775 4.1 -13.8°
Enters shadow 01:18:08 17° 182° (S) 1,745 5.3 -13.5°
